"2010-06-13 00:00:00",196300,5.186,50.01,4.45,0.852,11.12,102.4737,5.613,7.318,98.3,0,88.6,13.58,6.38,12.0
"2010-06-13 00:00:30",196301,4.956,44.24,4.677,0.558,11.45,102.4723,5.609,7.265,98.2,0,89.8,13.58,6.38,6.2
"2010-06-13 00:01:00",196302,4.367,41.78,5.047,0.999,9.49,102.4774,5.622,7.266,98.2,0,89.3,13.58,6.39,3.8
"2010-06-13 00:01:30",196303,3.117,35.78,5.9,1.183,7.421,102.4858,5.644,7.142,98.1,0,89.3,13.58,6.42,357.8
"2010-06-13 00:02:00",196304,2.404,34.64,4.413,0.511,6.513,102.4842,5.64,7.076,98,0,89,13.61,6.41,356.6
"2010-06-13 00:02:30",196305,4.192,46.2,6.228,1.163,8.47,102.4977,5.674,7.251,98.2,0,89.7,13.58,6.45,8.2
"2010-06-13 00:03:00",196306,4.991,47.48,6.382,0.952,10.74,102.4924,5.661,7.314,98.3,0,89.6,13.58,6.43,9.5
"2010-06-13 00:03:30",196307,4.743,53.77,4.053,0.852,11.34,102.4734,5.612,7.363,98.3,0,89.1,13.58,6.38,15.8
"2010-06-13 00:04:00",196308,4.44,52.61,4.449,0.917,10.23,102.4895,5.653,7.335,98.3,0,89.5,13.58,6.43,14.6
"2010-06-13 00:04:30",196309,4.632,54.65,5.15,0.988,9.93,102.489,5.652,7.361,98.3,0,89.3,13.58,6.42,16.7
"2010-06-13 00:05:00",196310,3.673,49.2,3.849,0.95,7.477,102.4777,5.623,7.123,98.1,0,89.7,13.58,6.39,11.2
"2010-06-13 00:05:30",196311,3.142,46.02,2.411,0.615,7.05,102.4881,5.65,7.111,98.1,0,89.4,13.58,6.42,8.0
"2010-06-13 00:06:00",196312,4.456,52.87,5.15,1.118,10.28,102.4638,5.588,7.309,98.3,0,89.1,13.58,6.36,14.9
"2010-06-13 00:06:30",196313,4.716,53.77,3.775,0.495,11.2,102.4559,5.567,7.278,98.2,0,89.2,13.58,6.34,15.8
"2010-06-13 00:07:00",196314,3.887,51.32,5.164,1.081,9.59,102.461,5.58,7.236,98.2,0,89.6,13.58,6.35,13.3
"2010-06-13 00:07:30",196315,4.552,55.93,4.101,0.881,10.92,102.4457,5.541,7.274,98.3,0,89,13.58,6.31,17.9
"2010-06-13 00:08:00",196316,2.881,46.44,3.751,0.783,6.965,102.4214,5.479,7.084,98.1,0,89.2,13.58,6.25,8.4
"2010-06-13 00:08:30",196317,2.865,45.53,2.144,0.165,6.48,102.4126,5.457,6.965,98,0,88.8,13.61,6.23,7.5
"2010-06-13 00:09:00",196318,3.89,49.37,6.104,1.208,8.02,102.425,5.489,7.017,98.1,0,89.1,13.58,6.26,11.4
"2010-06-13 00:09:30",196319,5.027,54.82,4.805,1.043,10.43,102.4321,5.507,7.223,98.3,0,89.3,13.58,6.28,16.8
"2010-06-13 00:10:00",196320,5.831,55.03,3.93,0.484,11.15,102.4327,5.508,7.271,98.3,0,89.3,13.58,6.28,17.0
"2010-06-13 00:10:30",196321,4.739,50.61,5.366,1.118,10.42,102.427,5.494,7.232,98.3,0,89.6,13.58,6.26,12.6
"2010-06-13 00:11:00",196322,5.126,51.87,5.333,0.646,10.27,102.4281,5.497,7.199,98.3,0,89.9,13.58,6.27,13.9
"2010-06-13 00:11:30",196323,3.21,41.17,4.065,0.747,7.298,102.4216,5.48,7.025,98.1,0,89.7,13.58,6.25,3.2
"2010-06-13 00:12:00",196324,3.242,37.27,1.9,0.256,6.612,102.4256,5.49,6.951,98,0,89.4,13.61,6.26,359.3
"2010-06-13 00:12:30",196325,5.124,47.21,6.037,1.027,9.83,102.401,5.427,7.142,98.2,0,89.9,13.58,6.20,9.2
"2010-06-13 00:13:00",196326,5.465,48.78,5.533,0.957,10.56,102.3764,5.364,7.129,98.2,0,89.7,13.58,6.14,10.8
"2010-06-13 00:13:30",196327,5.969,49.71,4.369,0.825,11.1,102.3653,5.336,7.129,98.3,0,89.7,13.58,6.11,11.7
"2010-06-13 00:14:00",196328,5.71,47.31,5.303,1.066,10.2,102.3591,5.32,7.078,98.2,0,88.7,13.58,6.09,9.3
"2010-06-13 00:14:30",196329,5.804,48.25,4.419,0.775,10.62,102.3591,5.32,7.038,98.2,0,88.9,13.58,6.09,10.2
"2010-06-13 00:15:00",196330,3.845,37.9,1.19,0.136,6.86,102.3591,5.32,6.799,98,0,88.4,13.62,6.09,359.9
"2010-06-13 00:15:30",196331,4.534,41.96,6.149,1.126,8.57,102.3591,5.32,6.925,98.1,0,88.7,13.59,6.09,4.0
"2010-06-13 00:16:00",196332,5.614,46.28,5.004,1.02,10.44,102.3761,5.364,7.074,98.2,0,89,13.59,6.13,8.3
"2010-06-13 00:16:30",196333,5.869,47.2,4.27,0.624,11.21,102.3962,5.415,7.126,98.3,0,88.8,13.6,6.19,9.2
"2010-06-13 00:17:00",196334,5.819,48.17,4.369,0.929,10.35,102.3829,5.381,7.075,98.3,0,89.1,13.59,6.15,10.2
"2010-06-13 00:17:30",196335,5.679,47.94,5.359,0.884,10.35,102.3764,5.364,7.052,98.3,0,88.4,13.59,6.14,9.9
"2010-06-13 00:18:00",196336,3.874,37.09,3.739,0.685,7.554,102.3758,5.363,6.887,98.1,0,88.3,13.6,6.13,359.1
"2010-06-13 00:18:30",196337,4.365,38.94,5.314,1.014,7.761,102.3868,5.391,6.897,98.1,0,88.5,13.59,6.16,0.9
"2010-06-13 00:19:00",196338,5.518,44.2,5.249,1.084,10.29,102.4095,5.449,7.076,98.3,0,88.7,13.59,6.22,6.2
"2010-06-13 00:19:30",196339,5.518,44,5.898,1.178,10.56,102.4256,5.49,7.136,98.3,0,88.2,13.59,6.26,6.0
"2010-06-13 00:20:00",196340,6.09,46.97,3.114,0.577,11.38,102.4474,5.546,7.205,98.3,0,88.5,13.59,6.32,9.0
"2010-06-13 00:20:30",196341,5.414,44.48,5.478,1.06,10.28,102.455,5.565,7.206,98.4,0,88.8,13.59,6.34,6.5
"2010-06-13 00:21:00",196342,4.726,42.03,6.263,1.17,8.99,102.4669,5.596,7.081,98.2,0,89,13.6,6.37,4.0
"2010-06-13 00:21:30",196343,3.727,37.9,1.912,0.128,6.863,102.4612,5.581,6.985,98.1,0,90.7,13.63,6.35,359.9
"2010-06-13 00:22:00",196344,5.769,49.92,4.366,0.849,10.43,102.4578,5.572,7.197,98.3,0,89.1,13.6,6.34,11.9
"2010-06-13 00:22:30",196345,5.178,51.55,6.625,1.033,10.77,102.4624,5.584,7.313,98.4,0,89,13.6,6.36,13.5
"2010-06-13 00:23:00",196346,6.283,49.36,4.438,0.663,10.97,102.4802,5.63,7.23,98.3,0,88.9,13.6,6.40,11.4
"2010-06-13 00:23:30",196347,5.497,54.37,6.838,0.882,11.06,102.4977,5.674,7.383,98.4,0,88.5,13.61,6.45,16.4
"2010-06-13 00:24:00",196348,5.331,56.33,5.823,1.181,10.15,102.5158,5.721,7.323,98.4,0,88.5,13.61,6.49,18.3
"2010-06-13 00:24:30",196349,4.37,43.69,3.11,0.801,7.377,102.5138,5.716,7.119,98.2,0,88.4,13.61,6.49,5.7
"2010-06-13 00:25:00",196350,5.258,51.89,4.167,1.174,10.31,102.5079,5.7,7.279,98.4,0,88.8,13.61,6.47,13.9
"2010-06-13 00:25:30",196351,5.637,49.02,4.416,1.076,10.87,102.5238,5.741,7.442,98.5,0,88.4,13.61,6.51,11.0
"2010-06-13 00:26:00",196352,6.305,51.69,4.631,0.716,11.01,102.5283,5.752,7.393,98.4,0,88.4,13.61,6.52,13.7
"2010-06-13 00:26:30",196353,6.038,55.76,5.913,0.589,11.18,102.5201,5.731,7.389,98.4,0,89,13.61,6.50,17.8
"2010-06-13 00:27:00",196354,5.269,53.03,6.572,0.864,10.84,102.5113,5.709,7.442,98.5,0,88.7,13.61,6.48,15.0
"2010-06-13 00:27:30",196355,3.512,46.41,2.654,0.845,7.488,102.5113,5.709,7.151,98.2,0,88.8,13.61,6.48,8.4
"2010-06-13 00:28:00",196356,4.119,48.34,4.466,1.167,9.02,102.5116,5.71,7.249,98.3,0,89.2,13.61,6.48,10.3
"2010-06-13 00:28:30",196357,5.013,50.59,5.348,1.048,10.58,102.5003,5.681,7.393,98.4,0,88.4,13.61,6.45,12.6
"2010-06-13 00:29:00",196358,5.031,49.49,5.078,1.076,10.51,102.4873,5.648,7.352,98.4,0,88.6,13.61,6.42,11.5
"2010-06-13 00:29:30",196359,5.178,51.09,4.819,0.971,10.5,102.4791,5.627,7.283,98.3,0,88.8,13.61,6.40,13.1
"2010-06-13 00:30:00",196360,5.239,51.72,4.839,0.99,10.5,102.4774,5.622,7.403,98.5,0,88.7,13.61,6.39,13.7
"2010-06-13 00:30:30",196361,4.686,47,6.301,1.133,9.07,102.4604,5.579,7.152,98.2,0,88.6,13.61,6.35,9.0
"2010-06-13 00:31:00",196362,3.655,40.43,0.796,0.082,6.879,102.4522,5.558,7.049,98.2,0,88.8,13.63,6.33,2.4
"2010-06-13 00:31:30",196363,5.549,48.18,4.931,0.913,10.38,102.4508,5.554,7.239,98.3,0,88.6,13.61,6.33,10.2
"2010-06-13 00:32:00",196364,5.771,50.36,4.691,0.789,11.02,102.4525,5.559,7.264,98.4,0,88.9,13.61,6.33,12.4
"2010-06-13 00:32:30",196365,5.56,49.23,5.849,1.02,10,102.4522,5.558,7.275,98.4,0,89,13.61,6.33,11.2
"2010-06-13 00:33:00",196366,5.592,50.61,5.449,0.992,10.56,102.4519,5.557,7.291,98.4,0,88.5,13.61,6.33,12.6
"2010-06-13 00:33:30",196367,5.365,46.54,5.977,1.076,9.79,102.4505,5.554,7.182,98.3,0,88.4,13.61,6.33,8.5
"2010-06-13 00:34:00",196368,3.978,40.14,0.964,0.106,7.103,102.4525,5.559,7.028,98.2,0,88.7,13.64,6.33,2.1
"2010-06-13 00:34:30",196369,5.326,43.03,5.561,1.146,9.15,102.4525,5.559,7.105,98.2,0,89,13.61,6.33,5.0
"2010-06-13 00:35:00",196370,5.721,45.51,3.912,0.812,11.62,102.4525,5.559,7.271,98.4,0,89.2,13.62,6.33,7.5
"2010-06-13 00:35:30",196371,5.394,43.3,5.871,1.129,10.45,102.4525,5.559,7.267,98.4,0,89.2,13.62,6.33,5.3
"2010-06-13 00:36:00",196372,5.291,43.3,4.514,0.805,11.1,102.4584,5.574,7.267,98.4,0,89.5,13.61,6.35,5.3
"2010-06-13 00:36:30",196373,4.641,39.77,6.608,1.198,9.89,102.4655,5.592,7.188,98.3,0,88.4,13.61,6.36,1.8
"2010-06-13 00:37:00",196374,2.976,31.5,4.192,0.681,7.477,102.4528,5.559,7.084,98.2,0,88.4,13.61,6.33,353.5
"2010-06-13 00:37:30",196375,2.705,28.09,1.302,0.119,6.916,102.4528,5.559,7.02,98.2,0,88.4,13.64,6.33,350.1
"2010-06-13 00:38:00",196376,4.203,35.83,5.515,1.141,9.91,102.4632,5.586,7.164,98.3,0,88.5,13.62,6.36,357.8
"2010-06-13 00:38:30",196377,4.766,36.79,5.764,1.124,10.59,102.4706,5.605,7.297,98.4,0,88.8,13.62,6.38,358.8
"2010-06-13 00:39:00",196378,5.56,39.34,4.87,0.743,11.12,102.4762,5.619,7.284,98.4,0,89.2,13.62,6.39,1.3
"2010-06-13 00:39:30",196379,5.202,38.97,4.587,1.062,10.51,102.4873,5.648,7.289,98.4,0,88.6,13.62,6.42,1.0
"2010-06-13 00:40:00",196380,4.815,37.91,5.12,1.137,10.28,102.4983,5.676,7.247,98.4,0,89,13.62,6.45,359.9
"2010-06-13 00:40:30",196381,3.44,29.36,0.902,0.311,6.843,102.4779,5.624,7.049,98.2,0,88.4,13.65,6.40,351.4
"2010-06-13 00:41:00",196382,4.434,32.64,5.263,0.915,7.941,102.4748,5.616,7.113,98.2,0,88.2,13.62,6.39,354.6
"2010-06-13 00:41:30",196383,5.46,39.11,5.151,0.966,10.68,102.4533,5.561,7.248,98.4,0,88.2,13.62,6.33,1.1
"2010-06-13 00:42:00",196384,4.29,37.16,5.852,1.164,10.69,102.4477,5.546,7.231,98.4,0,87.9,13.62,6.32,359.2
"2010-06-13 00:42:30",196385,4.488,39.55,5.32,0.962,10.72,102.4612,5.581,7.304,98.5,0,88.4,13.61,6.35,1.5
"2010-06-13 00:43:00",196386,4.457,39.35,5.731,1.099,9.84,102.4669,5.596,7.21,98.4,0,88.4,13.61,6.37,1.3
"2010-06-13 00:43:30",196387,3.222,32.43,5.702,0.999,7.691,102.4573,5.571,7.018,98.2,0,88.1,13.61,6.34,354.4
"2010-06-13 00:44:00",196388,2.82,30.08,1.54,0.129,6.832,102.4573,5.571,6.976,98.2,0,88.1,13.64,6.34,352.1
"2010-06-13 00:44:30",196389,3.811,34.22,5.502,1.139,8.84,102.4528,5.559,7.077,98.2,0,88.2,13.61,6.33,356.2
"2010-06-13 00:45:00",196390,4.231,36.71,5.116,1.049,10.37,102.4593,5.576,7.232,98.4,0,88.3,13.62,6.35,358.7
"2010-06-13 00:45:30",196391,4.826,40.58,2.587,0.355,11.45,102.4714,5.607,7.132,98.3,0,88.2,13.61,6.38,2.6
"2010-06-13 00:46:00",196392,4.495,39.94,4.086,0.929,11.12,102.4559,5.567,7.257,98.4,0,88.1,13.61,6.34,1.9
"2010-06-13 00:46:30",196393,3.894,35.22,5.641,1.038,9.32,102.455,5.565,7.156,98.3,0,88.3,13.61,6.34,357.2
"2010-06-13 00:47:00",196394,2.864,30.24,3.465,0.739,7.054,102.4695,5.602,7,98.1,0,87.6,13.61,6.37,352.2
"2010-06-13 00:47:30",196395,2.838,29.75,3.703,0.637,7.365,102.4669,5.596,7.012,98.2,0,87.8,13.62,6.37,351.8
"2010-06-13 00:48:00",196396,3.155,31.6,5.565,1.014,8.54,102.457,5.57,7.081,98.2,0,87.9,13.62,6.34,353.6
"2010-06-13 00:48:30",196397,4.12,36.34,4.857,0.993,10.91,102.4553,5.566,7.214,98.3,0,87.8,13.62,6.34,358.3
"2010-06-13 00:49:00",196398,4.19,37.67,4.451,0.901,10.95,102.4709,5.606,7.221,98.4,0,88,13.62,6.38,359.7
"2010-06-13 00:49:30",196399,4.269,38.04,3.679,0.738,11.17,102.4774,5.622,7.229,98.4,0,88.1,13.62,6.39,0.0
"2010-06-13 00:50:00",196400,3.653,35.18,5.969,1.069,9.65,102.4779,5.624,7.152,98.3,0,87.9,13.62,6.40,357.2
"2010-06-13 00:50:30",196401,2.162,27.76,1.544,0.102,6.591,102.4788,5.626,6.993,98.1,0,87.8,13.64,6.40,349.8
"2010-06-13 00:51:00",196402,2.09,26.81,1.125,0.111,6.636,102.4779,5.624,7.002,98.1,0,88,13.65,6.40,348.8
"2010-06-13 00:51:30",196403,2.834,32.05,5.579,1.036,8.15,102.4779,5.624,7.105,98.2,0,88.1,13.62,6.40,354.0
"2010-06-13 00:52:00",196404,3.661,36.03,4.972,0.982,10.04,102.4779,5.624,7.109,98.2,0,88.4,13.62,6.40,358.0
"2010-06-13 00:52:30",196405,3.194,34.26,5.459,1.106,9.98,102.4779,5.624,7.254,98.3,0,88.4,13.62,6.40,356.3
"2010-06-13 00:53:00",196406,3.852,36.8,4.122,0.826,10.86,102.4779,5.624,7.29,98.4,0,87,13.62,6.40,358.8
"2010-06-13 00:53:30",196407,3.754,35.39,5.127,1.019,10.16,102.4779,5.624,7.194,98.3,0,87.6,13.62,6.40,357.4
"2010-06-13 00:54:00",196408,2.039,27.85,1.132,0.117,6.592,102.4779,5.624,7.004,98.1,0,87.9,13.64,6.40,349.9
"2010-06-13 00:54:30",196409,2.155,28.63,1.429,0.126,6.471,102.4779,5.624,7.001,98,0,87.7,13.64,6.40,350.6
"2010-06-13 00:55:00",196410,3.16,32.14,5.654,1.125,8.12,102.4779,5.624,7.062,98.1,0,87.5,13.62,6.40,354.1
"2010-06-13 00:55:30",196411,3.34,33.53,5.978,1.043,9.43,102.4779,5.624,7.123,98.2,0,88.1,13.62,6.40,355.5
"2010-06-13 00:56:00",196412,3.129,32.28,6.454,1.072,9.62,102.4779,5.624,7.227,98.2,0,87.6,13.62,6.40,354.3
"2010-06-13 00:56:30",196413,4.068,37.2,3.868,0.756,11.19,102.4779,5.624,7.273,98.3,0,88.3,13.62,6.40,359.2
"2010-06-13 00:57:00",196414,4.012,37.49,5.464,0.971,9.96,102.4785,5.625,7.247,98.2,0,88.1,13.62,6.40,359.5
"2010-06-13 00:57:30",196415,2.526,30.91,5.495,0.954,7.642,102.4785,5.625,7.097,98.1,0,88.3,13.62,6.40,352.9
"2010-06-13 00:58:00",196416,2.16,27.75,2.386,0.163,6.624,102.4836,5.638,7.017,98,0,87.9,13.64,6.41,349.8
"2010-06-13 00:58:30",196417,2.516,32.3,5.177,0.97,7.7,102.4901,5.655,7.108,98.1,0,87.7,13.62,6.43,354.3
"2010-06-13 00:59:00",196418,3.449,33.08,5.266,1.132,9.14,102.5048,5.692,7.139,98.1,0,88,13.61,6.46,355.1
"2010-06-13 00:59:30",196419,4.203,34.91,5.664,1.125,10.17,102.5119,5.71,7.24,98.2,0,87.8,13.61,6.48,356.9
"2010-06-13 01:00:00",196420,3.669,34.69,5.663,1.108,10.64,102.5119,5.71,7.341,98.2,0,88.2,13.61,6.48,356.7
"2010-06-13 01:00:30",196421,4.24,38.02,6.111,0.734,10.76,102.5167,5.723,7.339,98.2,0,87.9,13.61,6.49,0.0
"2010-06-13 01:01:00",196422,3.988,44.73,10.07,1.241,9.21,102.5424,5.789,7.266,98.1,0,87.6,13.61,6.56,6.7
"2010-06-13 01:01:30",196423,1.998,26.91,4.548,0.251,6.849,102.5495,5.807,7.173,98,0,88,13.63,6.58,348.9
"2010-06-13 01:02:00",196424,2.554,26.98,8.84,1.062,7.839,102.5707,5.861,7.336,98.1,0,87.9,13.61,6.63,349.0
"2010-06-13 01:02:30",196425,2.951,31.87,6.037,1.19,9.21,102.554,5.818,7.323,98.1,0,88,13.61,6.59,353.9
"2010-06-13 01:03:00",196426,2.56,31.81,5.913,1.055,8.72,102.5147,5.718,7.287,98.1,0,87.9,13.61,6.49,353.8
"2010-06-13 01:03:30",196427,3.359,35.2,6.343,1.067,9.88,102.5008,5.682,7.292,98.1,0,88,13.61,6.45,357.2
"2010-06-13 01:04:00",196428,3.776,39.22,3.847,0.867,11.02,102.4895,5.653,7.377,98.2,0,88.3,13.62,6.43,1.2
"2010-06-13 01:04:30",196429,3.616,37.8,4.348,0.793,10.63,102.4842,5.64,7.309,98.1,0,88.2,13.62,6.41,359.8
"2010-06-13 01:05:00",196430,1.693,28.31,2.562,0.625,6.759,102.4788,5.626,7.071,97.9,0,88,13.61,6.40,350.3
"2010-06-13 01:05:30",196431,2.134,33.16,4.836,0.929,7.186,102.4779,5.624,7.097,97.9,0,88.2,13.61,6.40,355.2
"2010-06-13 01:06:00",196432,2.539,36.37,6.522,1.123,8.09,102.4779,5.624,7.179,98,0,87.5,13.61,6.40,358.4
"2010-06-13 01:06:30",196433,3.012,37.21,5.237,0.997,8.35,102.4808,5.631,7.135,97.9,0,88.4,13.62,6.40,359.2
"2010-06-13 01:07:00",196434,2.704,35.8,5.367,1.054,8.45,102.4802,5.63,7.188,98,0,88.7,13.62,6.40,357.8
"2010-06-13 01:07:30",196435,4.295,44.55,5.011,0.981,11.19,102.4785,5.625,7.332,98.1,0,87.9,13.61,6.40,6.5
"2010-06-13 01:08:00",196436,4.669,43.76,3.999,0.618,10.9,102.4864,5.645,7.292,98.1,0,88.7,13.61,6.42,5.8
"2010-06-13 01:08:30",196437,3.886,39.59,5.803,1.087,8.88,102.4949,5.667,7.18,98,0,88.3,13.61,6.44,1.6
"2010-06-13 01:09:00",196438,3.423,37.55,4.495,0.845,7.597,102.4958,5.669,7.079,97.8,0,88.3,13.61,6.44,359.5
"2010-06-13 01:09:30",196439,4.029,40.05,5.784,1.097,8.8,102.5105,5.707,7.198,97.9,0,88.2,13.61,6.48,2.0
"2010-06-13 01:10:00",196440,4.155,40.16,5.592,1.075,9.35,102.5119,5.71,7.233,98,0,88.3,13.61,6.48,2.2
"2010-06-13 01:10:30",196441,3.932,39.35,5.769,1.179,9.41,102.5119,5.71,7.23,98,0,88.4,13.61,6.48,1.3
"2010-06-13 01:11:00",196442,4.732,44.66,4.209,0.781,11.25,102.5119,5.71,7.305,98,0,88.4,13.61,6.48,6.7
"2010-06-13 01:11:30",196443,4.08,41.25,5.015,0.91,10.4,102.5119,5.71,7.356,98,0,88.4,13.61,6.48,3.2
"2010-06-13 01:12:00",196444,4.13,39.91,6.995,1.165,9.22,102.515,5.718,7.248,97.9,0,88.4,13.61,6.49,1.9
"2010-06-13 01:12:30",196445,3.346,33.83,5.805,1.215,7.848,102.5416,5.786,7.19,97.8,0,87.6,13.61,6.56,355.8
"2010-06-13 01:13:00",196446,3.12,32.11,5.208,1.035,8.88,102.5537,5.817,7.307,97.9,0,88.4,13.61,6.59,354.1
"2010-06-13 01:13:30",196447,2.815,25.46,5.434,1.034,8.2,102.5724,5.865,7.272,97.9,0,88.4,13.62,6.64,347.5
"2010-06-13 01:14:00",196448,3.101,32.65,6.981,1.178,9.44,102.5769,5.877,7.418,98,0,88.1,13.62,6.65,354.6
"2010-06-13 01:14:30",196449,4.088,36.44,6.41,0.81,10.68,102.5772,5.877,7.51,98.1,0,87.8,13.62,6.65,358.4
"2010-06-13 01:15:00",196450,4.409,40.22,4.136,0.645,10.96,102.556,5.823,7.459,98,0,88.5,13.61,6.60,2.2
"2010-06-13 01:15:30",196451,3.39,32.48,9.12,1.164,8.05,102.5421,5.788,7.336,97.9,0,88,13.61,6.56,354.5
"2010-06-13 01:16:00",196452,2.952,22.95,7.058,1.084,8.89,102.5475,5.802,7.338,97.9,0,88,13.61,6.57,345.0
"2010-06-13 01:16:30",196453,3.102,32.7,8.04,1.232,8.82,102.5696,5.858,7.397,97.9,0,87.8,13.61,6.63,354.7
"2010-06-13 01:17:00",196454,3.609,36.32,5.987,1.076,8.56,102.5461,5.798,7.355,97.9,0,88.4,13.61,6.57,358.3
"2010-06-13 01:17:30",196455,3.946,37.01,5.506,1.288,9.96,102.5472,5.801,7.445,98,0,87.8,13.61,6.57,359.0
"2010-06-13 01:18:00",196456,4.866,37.52,8.33,0.796,10.93,102.5458,5.797,7.516,98,0,88,13.61,6.57,359.5
"2010-06-13 01:18:30",196457,3.935,37.74,5.539,1.026,10.57,102.5438,5.792,7.466,98,0,89.2,13.61,6.56,359.7
"2010-06-13 01:19:00",196458,2.934,31.57,5.066,0.936,8.24,102.5195,5.73,7.331,97.9,0,87.9,13.61,6.50,353.6
"2010-06-13 01:19:30",196459,3.821,32.79,5.961,1.264,8.19,102.5113,5.709,7.24,97.8,0,88.3,13.61,6.48,354.8
"2010-06-13 01:20:00",196460,3.344,32.1,5.359,1.073,8.68,102.483,5.637,7.263,97.8,0,88.4,13.61,6.41,354.1
"2010-06-13 01:20:30",196461,3.195,30.64,5.708,1.086,8.17,102.4779,5.624,7.178,97.7,0,90.2,13.61,6.40,352.6
"2010-06-13 01:21:00",196462,3.283,34.05,6.024,1.062,8.76,102.4779,5.624,7.25,97.8,0,88.1,13.61,6.40,356.0
"2010-06-13 01:21:30",196463,4.389,37.64,4.25,0.784,10.96,102.4779,5.624,7.343,97.9,0,88.3,13.62,6.40,359.6
"2010-06-13 01:22:00",196464,4.312,39.07,4.168,0.837,10.97,102.4779,5.624,7.358,98,0,88.3,13.62,6.40,1.1
"2010-06-13 01:22:30",196465,3.59,34.04,6.169,1.148,8.87,102.4779,5.624,7.151,97.7,0,88.4,13.62,6.40,356.0
"2010-06-13 01:23:00",196466,3.697,35.01,6.214,1.152,8.82,102.4779,5.624,7.194,97.8,0,88.5,13.62,6.40,357.0
"2010-06-13 01:23:30",196467,3.898,36.05,5.16,1.044,9.01,102.4779,5.624,7.194,97.8,0,88.5,13.62,6.40,358.0
"2010-06-13 01:24:00",196468,4.011,36.81,5.657,1.025,8.04,102.4836,5.638,7.159,97.8,0,88.9,13.62,6.41,358.8
"2010-06-13 01:24:30",196469,5.456,43.67,5.797,1.021,10.06,102.5003,5.681,7.272,97.9,0,89.3,13.62,6.45,5.7
"2010-06-13 01:25:00",196470,6.096,45.79,3.002,0.478,11.4,102.5025,5.687,7.355,98,0,89.4,13.62,6.46,7.8
"2010-06-13 01:25:30",196471,5.558,42.75,4.981,0.938,10.63,102.5028,5.687,7.338,98,0,88.7,13.62,6.46,4.8
"2010-06-13 01:26:00",196472,4.775,38.45,5.154,1.074,10.09,102.4935,5.664,7.254,97.9,0,89.1,13.62,6.44,0.5
"2010-06-13 01:26:30",196473,4.351,36.1,5.906,1.133,9.03,102.4808,5.631,7.163,97.8,0,89,13.61,6.40,358.1
"2010-06-13 01:27:00",196474,3.659,33.46,4.657,0.977,8.04,102.4782,5.624,7.144,97.8,0,89.3,13.62,6.40,355.5
"2010-06-13 01:27:30",196475,3.606,32.95,4.618,0.958,7.899,102.4779,5.624,7.136,97.8,0,86.2,13.62,6.40,355.0
"2010-06-13 01:28:00",196476,5.316,41.85,4.341,0.915,10.73,102.4836,5.638,7.262,97.9,0,89,13.62,6.41,3.8
"2010-06-13 01:28:30",196477,5.442,42.19,3.561,0.648,11.42,102.5068,5.697,7.325,98,0,90.7,13.62,6.47,4.2
"2010-06-13 01:29:00",196478,4.577,37.52,5.014,0.898,10.26,102.5119,5.71,7.316,98,0,88.9,13.62,6.48,359.5
"2010-06-13 01:29:30",196479,4.345,36.74,5.63,1.027,9.79,102.5351,5.77,7.263,97.9,0,88.9,13.62,6.54,358.7
"2010-06-13 01:30:00",196480,3.39,33.6,5.548,1.025,8.34,102.5458,5.797,7.276,97.9,0,89.1,13.62,6.57,355.6
"2010-06-13 01:30:30",196481,3.339,32.18,3.978,0.87,7.459,102.547,5.8,7.177,97.8,0,88.8,13.62,6.57,354.2
"2010-06-13 01:31:00",196482,3.421,34,4.716,0.973,8.48,102.5608,5.835,7.321,97.9,0,88.4,13.62,6.61,356.0
"2010-06-13 01:31:30",196483,5.046,41.03,3.77,0.722,11.24,102.5699,5.859,7.451,98.1,0,88.5,13.62,6.63,3.0
"2010-06-13 01:32:00",196484,4.925,39.59,2.231,0.537,11.66,102.5665,5.85,7.494,98.1,0,89.1,13.62,6.62,1.6
"2010-06-13 01:32:30",196485,4.613,36.94,4.461,0.843,10.75,102.5467,5.799,7.407,98,0,89.2,13.62,6.57,358.9
"2010-06-13 01:33:00",196486,3.756,33.3,6.182,1.191,9.1,102.5464,5.799,7.334,97.9,0,88.9,13.61,6.57,355.3
"2010-06-13 01:33:30",196487,4.067,33.43,5.991,1.148,8.78,102.5464,5.799,7.315,97.9,0,87.2,13.61,6.57,355.4
"2010-06-13 01:34:00",196488,3.35,28.11,2.411,0.499,7.125,102.5458,5.797,7.185,97.8,0,88.7,13.62,6.57,350.1
"2010-06-13 01:34:30",196489,4.676,33.48,5.945,1.473,9.59,102.5458,5.797,7.356,98,0,88.3,13.61,6.57,355.5
"2010-06-13 01:35:00",196490,5.596,39.3,3.222,0.72,11.56,102.5498,5.807,7.476,98.1,0,88.8,13.62,6.58,1.3
"2010-06-13 01:35:30",196491,5.584,38,4.829,0.676,11.05,102.573,5.867,7.441,98.1,0,89,13.61,6.64,0.0
"2010-06-13 01:36:00",196492,5.012,35.13,4.897,0.855,11.03,102.5798,5.884,7.428,98.1,0,89.1,13.61,6.66,357.1
"2010-06-13 01:36:30",196493,4.342,28.83,5.722,1.169,9.17,102.6032,5.944,7.382,98,0,89,13.62,6.72,350.8
"2010-06-13 01:37:00",196494,4.061,26.78,6.048,0.993,8.64,102.6072,5.954,7.403,98,0,89.2,13.62,6.73,348.8
"2010-06-13 01:37:30",196495,3.498,24.91,3.493,0.586,7.664,102.6137,5.971,7.273,97.9,0,88.5,13.62,6.74,346.9
"2010-06-13 01:38:00",196496,5.534,34.75,2.629,0.478,11.69,102.6185,5.983,7.61,98.2,0,88.4,13.62,6.76,356.8
"2010-06-13 01:38:30",196497,5.213,34.18,4.793,0.603,11.81,102.631,6.015,7.615,98.2,0,88.1,13.62,6.79,356.2
"2010-06-13 01:39:00",196498,5.299,35.05,3.032,0.464,11.8,102.6216,5.991,7.592,98.2,0,89.2,13.62,6.76,357.0
"2010-06-13 01:39:30",196499,4.306,30.81,6.128,1.149,9.94,102.6259,6.002,7.531,98.1,0,88.9,13.62,6.77,352.8
"2010-06-13 01:40:00",196500,4.008,28.91,6.215,0.993,8.87,102.6264,6.003,7.465,98.1,0,88.8,13.62,6.78,350.9
"2010-06-13 01:40:30",196501,3.85,24.52,5.465,0.876,8.27,102.623,5.994,7.415,98,0,88.6,13.62,6.77,346.5
"2010-06-13 01:41:00",196502,4.209,24.38,6.509,1.135,8.88,102.6327,6.019,7.476,98.1,0,88.4,13.62,6.79,346.4
"2010-06-13 01:41:30",196503,5.127,32.47,5.011,0.859,11.4,102.646,6.053,7.606,98.2,0,89,13.62,6.83,354.5
"2010-06-13 01:42:00",196504,5.293,33.32,3.999,0.813,11.37,102.6477,6.057,7.614,98.2,0,89.3,13.62,6.83,355.3
"2010-06-13 01:42:30",196505,5.427,31.56,3.922,0.579,11.65,102.6477,6.057,7.672,98.2,0,88.8,13.62,6.83,353.6
"2010-06-13 01:43:00",196506,5.379,31.87,4.195,0.67,11.2,102.6477,6.057,7.657,98.2,0,89.2,13.62,6.83,353.9
"2010-06-13 01:43:30",196507,4.491,29.09,5.567,1.162,9.26,102.6726,6.121,7.496,98.1,0,89.1,13.62,6.89,351.1
"2010-06-13 01:44:00",196508,4.574,27.31,5.413,1.133,8.73,102.6734,6.123,7.521,98.1,0,88.8,13.62,6.90,349.3
"2010-06-13 01:44:30",196509,4.216,24.54,5.6,1,8.69,102.6788,6.137,7.492,98.1,0,88.7,13.62,6.91,346.5
"2010-06-13 01:45:00",196510,5.365,31.28,2.947,0.509,11.13,102.6816,6.144,7.647,98.2,0,88.7,13.62,6.92,353.3
"2010-06-13 01:45:30",196511,5.343,33.23,4.398,0.5,11.28,102.6779,6.135,7.684,98.3,0,88.9,13.62,6.91,355.2
"2010-06-13 01:46:00",196512,5.314,32.7,2.853,0.658,11.24,102.6593,6.087,7.657,98.3,0,89.3,13.62,6.86,354.7
"2010-06-13 01:46:30",196513,4.717,28.37,5.092,1.08,10.14,102.6544,6.075,7.611,98.2,0,89.2,13.62,6.85,350.4
"2010-06-13 01:47:00",196514,3.763,25.99,5.776,0.985,8.93,102.6564,6.08,7.522,98.1,0,88.9,13.62,6.85,348.0
"2010-06-13 01:47:30",196515,3.403,23.03,6.39,1.082,7.858,102.6723,6.12,7.466,98.1,0,88.7,13.62,6.89,345.0
"2010-06-13 01:48:00",196516,3.85,27.42,8.65,1.191,8.75,102.6731,6.122,7.573,98.2,0,88.5,13.61,6.90,349.4
"2010-06-13 01:48:30",196517,4.692,32.34,5.702,0.665,10.78,102.6751,6.127,7.616,98.2,0,89.2,13.61,6.90,354.3
"2010-06-13 01:49:00",196518,4.328,29.81,6.67,0.771,11.18,102.6816,6.144,7.684,98.3,0,88.2,13.61,6.92,351.8
"2010-06-13 01:49:30",196519,4.354,31.41,5.635,0.96,9.59,102.6802,6.14,7.638,98.2,0,88.7,13.61,6.91,353.4
"2010-06-13 01:50:00",196520,3.91,30.33,5.863,1.123,8.61,102.6652,6.102,7.48,98.1,0,88.3,13.61,6.88,352.3
"2010-06-13 01:50:30",196521,3.754,28.87,6.071,1.127,8.59,102.6544,6.075,7.514,98.1,0,88.2,13.61,6.85,350.9
"2010-06-13 01:51:00",196522,2.808,25.3,3.353,0.47,6.95,102.6502,6.064,7.418,98,0,87.8,13.61,6.84,347.3
"2010-06-13 01:51:30",196523,3.975,31.07,5.715,1.017,9.71,102.6505,6.065,7.629,98.3,0,88.4,13.61,6.84,353.1
"2010-06-13 01:52:00",196524,4.841,29.85,7.677,0.578,11.13,102.6621,6.094,7.644,98.3,0,88.6,13.61,6.87,351.9